ARIANE 5 R/B (28499 NORAD) Tracking and Keplerian Element Data

This shows tracking and keplerian element data for the satellite.

Feedback or suggestion? Click here.




ElementValue
Catalog28499
NameARIANE 5 R/B
Epoch Orbit92151
Epoch Day15.92643903
Epoch Year2022
RAAN131.4868
Inclination98.0838
Eccentricity0.0091311
Argument of Perigee206.5144
Mean Anonmoly293.3183
Mean Motion14.80220167
Decay Rate4.29E-06
L11 28499U 04049H 22015.92643903 .00000429 00000+0 59967-4 0 9999
L22 28499 98.0838 131.4868 0091311 206.5144 293.3183 14.80220167921516

Live tracking and technical data element details for ARIANE 5 R/B (NORAD 28499). ARIANE 5 R/B can be tracked NOW for your location showing map with azimuth and elevation plus other details from your city location.

Track the satellite on the map from your city or location and see movement details for azimuth, elevation, latitude, longitude, range, height, and movement on the map or in text.







IsCatalogInMostPopularTable: catalog: 28499, numindb: 340
Update: records affected: 1



GetName: 28499 ARIANE 5 R/B

Hit Count: updated at: Mon, 17 Jan 2022 00:32:19 GMT